Location: Chuathbaluk
(61.5726°N, 159.2454°W)
Time: 23:40:55
(UTC+00:00)

Explorer 7 - Pass Details

Date: 11 December 2021
Orbit: 483 x 674 km, 50.3° (Epoch: 21 January)

Event Time Altitude Azimuth Distance (km) Brightness Sun altitude
Exits shadow 16:58:56 12° 226° (SW) 1,778 9.1 -16.9°
Maximum altitude 17:01:18 17° 190° (S) 1,444 9.0 -16.6°
Drops below altitude 10° 17:03:59 10° 149° (SSE) 1,803 10.2 -16.3°
Sets 17:06:45 0° 128° (SE) 2,655 11.7 -16.0°
